Tracking 31033 objects as of 15-Jul-2025
HD Live streaming from Space Station
objects crossing your sky now

FENGYUN 1C DEB

Track FENGYUN 1C DEB now!
10-day predictions


NORAD ID: 31931
Int'l Code: 1999-025CMG
Perigee: 791.3 km
Apogee: 1,424.7 km
Inclination: 97.8 °
Period: 107.3 minutes
Semi major axis: 7479 km
RCS: 0.0158 m2 (small)
Launch date: May 10, 1999
Source: People's Republic of China (PRC)
Launch site: Taiyaun Space Center, China (TSC)

Note: This is SATELLITE DEBRIS
Your satellite tracking list
Your tracking list is empty




NASA's NSSDC Master Catalog

Two Line Element Set (TLE):
1 31931U 99025CMG 25195.21396731  .00000317  00000-0  36461-3 0  9990
2 31931  97.7911 179.4901 0423432 303.6680  52.4745 13.42258235631897
Source of the keplerian elements: AFSPC